FW3274 Weather Reports


Display with metric or nautical units.
time (UTC)temp
F
wind
direction
speed
MPH
gust
MPH
rain 1hr
in
rain 24hr
in
rain mn
in
humidity
%
barometer
mb
20260901191547 77 67 0.0 0.0 0.00 0.00 0.00 59 1012.0
20260901190043 78 67 0.0 0.0 0.00 0.00 0.00 58 1011.9
20260901184534 78 67 0.0 0.0 0.00 0.00 0.00 56 1011.7
20260901183057 79 67 0.0 0.0 0.00 0.00 0.00 55 1011.8
20260901181533 80 67 0.0 0.0 0.00 0.00 0.00 54 1011.6
20260901180033 80 67 0.0 0.0 0.00 0.00 0.00 53 1011.4
20260901174533 81 67 0.0 0.0 0.00 0.00 0.00 53 1011.3
20260901173038 82 67 0.0 0.0 0.00 0.00 0.00 51 1011.2
20260901171532 83 67 0.0 0.0 0.00 0.00 0.00 48 1011.3
20260901170031 84 67 0.0 0.0 0.00 0.00 0.00 47 1011.4
20260901164531 85 75 0.0 0.0 0.00 0.00 0.00 45 1011.3
20260901163030 86 77 0.0 1.0 0.00 0.00 0.00 44 1011.5
20260901161530 87 65 0.0 0.0 0.00 0.00 0.00 43 1011.5
20260901160035 86 68 0.0 1.0 0.00 0.00 0.00 44 1011.6
20260901154537 87 92 0.0 2.0 0.00 0.00 0.00 43 1011.7
20260901153039 87 81 0.0 1.0 0.00 0.00 0.00 42 1011.7
20260901151527 87 80 0.0 3.0 0.00 0.00 0.00 43 1011.7
20260901150026 87 94 0.0 2.0 0.00 0.00 0.00 44 1011.8
20260901144533 87 79 0.0 3.0 0.00 0.00 0.00 42 1011.9
20260901143025 87 78 0.0 4.0 0.00 0.00 0.00 43 1012.1
20260901141525 88 80 0.0 3.0 0.00 0.00 0.00 43 1012.0
20260901140024 87 67 0.0 3.0 0.00 0.00 0.00 43 1012.2
20260901134524 87 74 0.0 2.0 0.00 0.00 0.00 45 1012.3
20260901133024 88 96 1.0 6.0 0.00 0.00 0.00 42 1012.3
20260901131522 87 55 0.0 2.0 0.00 0.00 0.00 43 1012.4
20260901130019 87 101 0.0 4.0 0.00 0.00 0.00 45 1012.6
20260901124535 86 53 1.0 6.0 0.00 0.00 0.00 45 1012.7
20260901123019 86 71 0.0 4.0 0.00 0.00 0.00 45 1012.9
20260901121517 86 26 0.0 5.0 0.00 0.00 0.00 46 1012.8
20260901120016 86 74 0.0 6.0 0.00 0.00 0.00 46 1012.9
20260901114515 86 82 0.0 4.0 0.00 0.00 0.00 48 1013.0
20260901113015 86 82 0.0 4.0 0.00 0.00 0.00 48 1013.1
20260901111515 86 76 0.0 4.0 0.00 0.00 0.00 46 1013.2
20260901110012 85 84 0.0 6.0 0.00 0.00 0.00 47 1013.2
20260901104512 85 87 0.0 4.0 0.00 0.00 0.00 46 1013.3
20260901103010 84 94 0.0 7.0 0.00 0.00 0.00 47 1013.4
20260901101508 84 54 0.0 5.0 0.00 0.00 0.00 47 1013.5
20260901100008 83 98 0.0 6.0 0.00 0.00 0.00 47 1013.6
20260901094515 84 69 0.0 7.0 0.00 0.00 0.00 47 1013.6
20260901093003 82 71 0.0 7.0 0.00 0.00 0.00 48 1013.9
20260901091502 81 75 0.0 5.0 0.00 0.00 0.00 48 1013.8
20260901090105 81 75 0.0 5.0 0.00 0.00 0.00 49 1013.7
20260901084607 82 81 1.0 8.0 0.00 0.00 0.00 47 1013.6
20260901083104 81 73 1.0 6.0 0.00 0.00 0.00 50 1013.4
20260901081555 80 26 2.0 8.0 0.00 0.00 0.00 50 1013.4
20260901074551 79 72 0.0 8.0 0.00 0.00 0.00 51 1013.0
20260901073050 79 90 0.0 5.0 0.00 0.00 0.00 51 1012.8
20260901071549 80 97 1.0 5.0 0.00 0.00 0.00 49 1012.7
20260901070049 79 75 0.0 3.0 0.00 0.00 0.00 51 1012.5
20260901064548 79 76 0.0 0.0 0.00 0.00 0.00 50 1012.4
20260901063050 77 72 0.0 0.0 0.00 0.00 0.00 55 1012.4
20260901061537 75 71 0.0 0.0 0.00 0.00 0.00 63 1012.4
20260901060034 74 71 0.0 0.0 0.00 0.00 0.00 60 1012.2
20260901054534 73 76 0.0 0.0 0.00 0.00 0.00 63 1012.0
20260901053030 72 76 0.0 0.0 0.00 0.00 0.00 65 1012.0
20260901051529 72 76 0.0 0.0 0.00 0.00 0.00 64 1011.8
20260901050027 71 76 0.0 0.0 0.00 0.00 0.00 66 1011.6
20260901044533 71 76 0.0 0.0 0.00 0.00 0.00 66 1011.6
20260901043024 72 76 0.0 0.0 0.00 0.00 0.00 64 1011.4
20260901041528 71 76 0.0 0.0 0.00 0.00 0.00 64 1011.2
20260901040024 71 76 0.0 1.0 0.00 0.00 0.00 68 1011.0
20260901034534 71 57 0.0 0.0 0.00 0.00 0.00 70 1011.0
20260901033025 71 57 0.0 0.0 0.00 0.00 0.00 69 1010.8
20260901031530 71 57 0.0 0.0 0.00 0.00 0.00 69 1010.8
20260901030018 71 57 0.0 0.0 0.00 0.00 0.00 68 1010.8
20260901024516 71 57 0.0 0.0 0.00 0.00 0.00 68 1010.9
20260901023016 71 57 0.0 0.0 0.00 0.00 0.00 67 1010.9
20260901021514 71 57 0.0 0.0 0.00 0.00 0.00 66 1010.8
20260901020013 72 57 0.0 0.0 0.00 0.00 0.00 67 1010.7
20260901014513 71 55 0.0 1.0 0.00 0.00 0.00 66 1010.7
20260901013011 72 65 0.0 4.0 0.00 0.00 0.00 65 1010.7
20260901011509 72 78 0.0 4.0 0.00 0.00 0.00 63 1010.5
20260901010019 73 76 0.0 4.0 0.00 0.00 0.00 62 1010.6
20260901004516 73 78 0.0 4.0 0.00 0.00 0.00 63 1010.6
20260901003006 73 68 0.0 6.0 0.00 0.00 0.00 65 1010.6
20260901001503 73 94 0.0 6.0 0.00 0.00 0.00 70 1010.6
20260901000105 73 50 0.0 2.0 0.00 0.00 0.00 75 1010.4
20260831234628 74 57 0.0 4.0 0.00 0.00 0.00 75 1010.3
20260831233059 74 80 0.0 2.0 0.00 0.00 0.00 75 1010.3
20260831231552 74 63 0.0 1.0 0.00 0.00 0.00 75 1010.0
20260831230047 74 95 0.0 0.0 0.00 0.00 0.00 75 1009.9
20260831224543 74 91 0.0 0.0 0.00 0.00 0.00 76 1009.6
20260831223051 74 136 0.0 0.0 0.00 0.00 0.00 76 1009.3
20260831221538 74 136 0.0 0.0 0.00 0.00 0.00 76 1009.1
20260831220036 74 136 0.0 0.0 0.00 0.00 0.00 75 1009.0
20260831214549 75 136 0.0 0.0 0.00 0.00 0.00 75 1009.0
20260831213036 75 136 0.0 0.0 0.00 0.00 0.00 74 1009.1
20260831211536 76 136 0.0 0.0 0.00 0.00 0.00 73 1008.9
20260831210038 76 136 0.0 0.0 0.00 0.00 0.00 73 1008.8
20260831204534 77 136 0.0 0.0 0.00 0.00 0.00 71 1008.6
20260831203033 77 136 0.0 0.0 0.00 0.00 0.00 70 1008.4
20260831201533 77 136 0.0 0.0 0.00 0.00 0.00 71 1008.3
20260831200033 78 136 0.0 0.0 0.00 0.00 0.00 71 1008.1
20260831194532 78 136 0.0 0.0 0.00 0.00 0.00 70 1008.0
20260831193100 79 146 0.0 0.0 0.00 0.00 0.00 69 1007.8